Find Starlink 1958

NORAD ID: 47559 Int'l Des: 2021-009 Owner: SPXS Country: US Constellation: starlink operational
LEOCIRCULAR

現在のビュー

3D地球を読み込み中...

About Starlink 1958

Starlink 1958 (NORAD 47559) is a starlink constellation satellite (v1.0) launched Feb 4, 2021 by SPXS of US. It operates in LEO, CIRCULAR orbit with a mass of 260.00 kg.

Starlink 1958について

説明を読み込み中...

次回通過

Passes for default location (London). Set your location on the main map for personalized predictions.

高度履歴

Loading altitude history...

軌道要素

1 47559U 21009M 26163.57604948 .01070639 63922-3 14862-2 0 9997
2 47559 53.0290 205.1009 0001845 73.6633 286.4602 16.05504797296643
Epoch: Jun 12, 2026 • Age: 12 hours

現在のステータス

高度 259.5 km
速度 7.76 km/s
衛星直下点 42.88°N, 42.78°E
打ち上げ日 Feb 4, 2021
運用期間 5.3 years
タイプ internet

技術仕様

分類 Payload
質量 260.00 kg
乾燥質量 248.00 kg
総質量 260.00 kg
長さ 0.20 m
直径 2.80 m
スパン 9.00 m
形状 Box + pan
製造者 SPXS
バスタイプ Starlink
フェーズステータス In Orbit
所有者/国 SPXS/US

Most Searched